Regional Weather Roundup
Issued by NWS

Home | Current Version | Previous Version | Text Only | Print | Product List | Glossary On
Versions: 1 2 3 4 5 6 7 8 9 10 11 12 13 14 15 16 17 18 19 20 21 22 23 24 25 26 27 28 29 30 31 32 33 34 35 36 37 38 39 40 41 42 43 44 45 46 47 48 49 50
000
ASUS43 KDTX 140910
RWRMI
MICHIGAN HOURLY REGIONAL WEATHER ROUNDUP
NATIONAL WEATHER SERVICE DETROIT/PONTIAC MI
500 AM EDT MON JUL 14 2014

NOTE: "FAIR" INDICATES FEW OR NO CLOUDS BELOW 12,000 FEET WITH NO
SIGNIFICANT WEATHER AND/OR OBSTRUCTION TO VISIBILITY.

MIZ047>049-052>055-059>063-066>070-074>076-081>083-141000-
SOUTHEAST LOWER MICHIGAN

CITY           SKY/WX    TMP DP  RH WIND       PRES   REMARKS
ADRIAN         PTCLDY    64  62  93 CALM      29.88R
ALMA           PTCLDY    62  60  95 CALM      29.86S FOG
ANN ARBOR      LGT RAIN  65  62  90 CALM      29.87S FOG
BAD AXE        PTCLDY    60  55  84 CALM      29.88S
DETROIT CITY   LGT RAIN  71  63  75 NW3       29.89R
DETROIT        RAIN      66  64  94 NW7       29.88R FOG
FLINT          PTCLDY    65  61  87 E6        29.86F
GROSSE ILE     MOCLDY    70  63  78 NW7       29.87R
HILLSDALE      PTCLDY    65  65 100 CALM      29.88F
HOWELL         PTCLDY    65  62  91 S3        29.87R

CITY           SKY/WX    TMP DP  RH WIND       PRES   REMARKS
JACKSON        PTCLDY    65  63  93 SW3       29.87S
LAMBERTVILLE   PTCLDY    64  61  88 CALM      29.87F
LANSING        CLEAR     64  61  90 CALM      29.87R
LAPEER         NOT AVBL
MASON          PTCLDY    64  62  93 CALM      29.87S
MONROE         PTCLDY    66  63  88 CALM      29.86S
MT. CLEMENS    CLOUDY    64  63  94 CALM      29.87S
PONTIAC        LGT RAIN  68  60  75 SE5       29.87S
PORT HOPE        N/A     62  54  74 SE5       29.86S
PORT HURON     CLOUDY    63  61  94 CALM      29.87S
TRI CITIES     MOCLDY    62  58  86 NE5       29.87R
YPSILANTI      LGT RAIN  69  62  78 CALM      29.88F
$$
MIZ043>046-050>051-056>058-064>065-071>073-077>080-141000-
SOUTHWEST LOWER MICHIGAN

CITY           SKY/WX    TMP DP  RH WIND       PRES   REMARKS
BATTLE CREEK   MOCLDY    65  63  93 CALM      29.88R
BENTON HARBOR  FOG       62  62 100 CALM      29.88F VSB 1/2
BIG RAPIDS     CLEAR     54  54 100 CALM      29.87S FOG
COLDWATER      PTCLDY    67  65  91 CALM      29.88S
HOLLAND        CLEAR     61  56  83 CALM      29.88S
GRAND RAPIDS   PTCLDY    66  62  87 W5        29.87S
KALAMAZOO      MOCLDY    65  62  90 W3        29.88R FOG
MARSHALL       FOG       62  62  99 CALM      29.87S VSB 3/4
MUSKEGON       CLEAR     58  55  90 CALM      29.87S
$$
MIZ016>042-141000-
NORTHERN LOWER MICHIGAN

CITY           SKY/WX    TMP DP  RH WIND       PRES   REMARKS
ALPENA         CLEAR     51  49  92 CALM      29.86S
BEAVER ISLAND  MOCLDY    59  52  77 SW5       29.81R
BELLAIRE       PTCLDY    49  47  95 CALM      29.83S
CADILLAC       CLEAR     47  47 100 CALM      29.87S
CHARLEVOIX     MOCLDY    59  52  77 CALM      29.84S
FRANKFORT      MOSUNNY   55  52  90 CALM      29.83S FOG
GAYLORD        CLEAR     50  46  86 CALM      29.85F
GRAYLING       MOCLDY    48  48 100 CALM      29.87S
HARBOR SPRINGS MOCLDY    53  51  91 CALM      29.81F
HOUGHTON LAKE  CLEAR     46  45  96 CALM      29.87S
MANISTEE       CLOUDY    54  50  87 E5        29.85S VSB 1/2
OSCODA         CLEAR     50  47  88 CALM      29.86S
PELLSTON       CLOUDY    53  50  89 S3        29.82F
TRAVERSE CITY  CLEAR     59  54  83 W3        29.82F
$$
MIZ007>008-015-141000-
EASTERN UPPER MICHIGAN

CITY           SKY/WX    TMP DP  RH WIND       PRES   REMARKS
KINROSS        CLOUDY    54  52  94 S6        29.81F
MACKINAC ISLAN CLOUDY    58  54  85 S8        29.81F
NEWBERRY       CLOUDY    55  51  89 S5        29.80S
S. S. MARIE    CLOUDY    51  48  89 E3        29.81F
$$
MIZ004>006-011>014-085-141000-
CENTRAL UPPER MICHIGAN

CITY           SKY/WX    TMP DP  RH WIND       PRES   REMARKS
MANISTIQUE     CLOUDY    56  55  94 N3        29.79S
ESCANABA       MOCLDY    54  48  82 CALM      29.80S
MENOMINEE      PTCLDY    55  48  76 W3        29.81F
SAWYER-GWINN   CLOUDY    55  51  86 CALM      29.80S
$$
MIZ001>003-009>011-084-141000-
WESTERN UPPER MICHIGAN

CITY           SKY/WX    TMP DP  RH WIND       PRES   REMARKS
IRON MOUNTAIN  CLOUDY    56  49  77 CALM      29.81S
HOUGHTON       CLEAR     51  48  89 W9        29.78F
COPPER HARBOR    N/A     55  48  77 VRB3      29.77F
IRONWOOD       PTCLDY    50  45  81 W6        29.81R
$$

ABBREVIATIONS USED IN REMARKS
   TC - TEMPERATURE IN CELSIUS
  WCI - WIND CHILL INDEX
   HX - HEAT INDEX
  VSB - VISIBILITY



USA.gov is the U.S. government's official web portal to all federal, state and local government web resources and services.